This is the latest recevied weather packets stored in our database for station/object KG5WBN. If no packets are shown the sender has not sent any weather packets the latest 10 day(s).
| Time | Temp. | Humidity | Pressure | Rain* | Wind** | Luminosity | Snow |
|---|---|---|---|---|---|---|---|
| 1787440260 | 34.44° C | 42% | 1012.9 hPa | 0 mm | - | 55 W/m² | - |
| 1787439956 | 34.44° C | 42% | 1012.9 hPa | 0 mm | - | 57 W/m² | - |
| 1787439652 | 34.44° C | 42% | 1012.9 hPa | 0 mm | - | 66 W/m² | - |
| 1787439348 | 34.44° C | 42% | 1013.2 hPa | 0 mm | - | 66 W/m² | - |
| 1787439043 | 34.44° C | 42% | 1012.9 hPa | 0 mm | - | 66 W/m² | - |
| 1787438738 | 34.44° C | 42% | 1012.9 hPa | 0 mm | - | 67 W/m² | - |
| 1787438437 | 35° C | 42% | 1012.9 hPa | 0 mm | - | 74 W/m² | - |
| 1787438132 | 35° C | 42% | 1012.9 hPa | 0 mm | - | 75 W/m² | - |
| 1787437828 | 35.56° C | 42% | 1012.9 hPa | 0 mm | - | 85 W/m² | - |
| 1787437524 | 35.56° C | 42% | 1012.9 hPa | 0 mm | - | 97 W/m² | - |
| 1787437221 | 36.11° C | 42% | 1012.9 hPa | 0 mm | - | 99 W/m² | - |
| 1787436917 | 35.56° C | 42% | 1012.9 hPa | 0 mm | - | 141 W/m² | - |
| 1787436613 | 37.22° C | 44% | 1012.9 hPa | 0 mm | - | 243 W/m² | - |
| 1787436313 | 35.56° C | 42% | 1013.2 hPa | 0 mm | - | 253 W/m² | - |
| 1787436008 | 36.11° C | 42% | 1013.2 hPa | 0 mm | - | 272 W/m² | - |
| 1787435703 | 36.67° C | 42% | 1013.2 hPa | 0 mm | - | 287 W/m² | - |
| 1787435399 | 36.67° C | 42% | 1013.5 hPa | 0 mm | - | 292 W/m² | - |
| 1787435096 | 36.11° C | 42% | 1013.2 hPa | 0 mm | - | 281 W/m² | - |
| 1787434791 | 35.56° C | 42% | 1013.5 hPa | 0 mm | - | 297 W/m² | - |
| 1787434488 | 36.67° C | 42% | 1013.2 hPa | 0 mm | - | 310 W/m² | - |
| 1787434183 | 35.56° C | 42% | 1013.2 hPa | 0 mm | - | 321 W/m² | - |
| 1787433879 | 36.67° C | 42% | 1013.5 hPa | 0 mm | - | 325 W/m² | - |
| 1787433573 | 36.11° C | 42% | 1013.2 hPa | 0 mm | - | 339 W/m² | - |
| 1787433269 | 36.11° C | 42% | 1013.2 hPa | 0 mm | - | 338 W/m² | - |
| 1787432966 | 36.11° C | 42% | 1013.5 hPa | 0 mm | - | 347 W/m² | - |
* Rain latest hour (hover to see other rain measurements)
** Current wind speed in m/s (hover to see current wind gust speed)